STARLINK-36675, 67663

Orbit data source: Space-Track

STARLINK-36675, 67663 is a payload satellite owned by SpaceX/Seattle (US) in SSO that was launched on Mon, 02 Feb 2026 UTC via an FALCON 9 launch vehicle from the Air Force Western Test Range (AFWTR). Payload-class satellites include a variety of spacecraft equipped with specific instruments for various scientific and technological missions. These include communications satellites like Starlink; space stations such as the ISS; scientific satellites like the Hubble; Earth observation satellites from companies like Planet Labs, Umbra, and HawkEye 360; GPS; miniature CubeSats for education and research; and military/defense satellites.

Loading next visibility...
Identifier
67663, 2026-022R
Orbit
SSO
Country
Flag of USUS
Related business
Manufacturer
SpaceX/Seattle
Mission
Operational spacecraft
Bus & Motor
STARLINK V2MO, Unknown motor
Mass
575 kg wet, ~530 kg dry
Launch date (UTC)
2026-02-02 (2 months ago)
Launch vehicle
FALCON 9
Launch site
Air Force Western Test Range (AFWTR)
Object type
Payload
Rocket body
Debris
Shape & HBR
Unknown shape, 17.7 m
Radar Cross Section
RCS unknown

Expand to show TLE details & history
Last TLE update: 13 hours ago

TLE from 13 hours ago
0 STARLINK-36675
1 67663U 26022R   26095.09623806  .00031216  00000-0  96477-3 0  9995
2 67663  97.2838 129.1216 0001358  80.6020 279.5376 15.33461296  9628
Epoch: 2026-04-05T02:18Z
TLE epoch observation values (Epoch: 2026-04-05T02:18:34.968Z)
Latitude
-0.00004°
Longitude
-98.93066°
Altitude
468.453 km
Speed
7.632 km/s
True Right ascension
08h 36m 29s
True Declination
0° 00' 00"
Sunlit
Object was in full shadow at epoch
Visualization orbit readout
Latitude
Unknown
Longitude
Unknown
Altitude
Unknown
Speed
Unknown
Apparent Right ascension
Unknown
Apparent Declination
Unknown
Sunlit
N/A
Visualization observer readout
Local Sidereal Time
20:56:44
Azimuth
Unknown
Elevation
Unknown
Doppler factor
Unknown
Orbital elements
Apogee altitude
463.366 km
Perigee altitude
461.508 km
Semi-major axis
6,840.574 km
Eccentricity
0.00014
Inclination
97.2838°
RAAN
129.1216°
Arg. of periapsis
80.602°
True anomaly
279.52225°
Mean anomaly
279.5376°
Eccentric anomaly
279.52993°
Mean motion
3.83623 °/min
Orbital period
93.84 mins
BSTAR
0.00096477
Loading maneuver chart data...
Computing Atmospheric mass density...
Loading historical data...
Loading historical data...
Loading historical data...
Loading historical data...
Loading historical data...
Loading historical data...
Loading historical data...

Documentation

Showing up to 5 results
|